Change the Weather History Date:

Monday, March 18, 2013

  Actual Average Record
Temperature  
Mean Temperature 47 °F -  
Max Temperature 58 °F 61 °F 83 °F (1978)
Min Temperature 36 °F 38 °F 17 °F (1965)
Degree Days  
Heating Degree Days 18    
Moisture  
Dew Point 35 °F    
Average Humidity 71    
Maximum Humidity 100    
Minimum Humidity 33    
Precipitation  
Precipitation 0.00 in - - ()
Sea Level Pressure  
Sea Level Pressure 29.92 in    
Wind  
Wind Speed 10 mph (NNE)    
Max Wind Speed 28 mph    
Max Gust Speed 34 mph    
Visibility 8 miles    
Events      
Averages and records for this station are not official NWS values.
T = Trace of Precipitation, MM = Missing Value Source: NWS Daily Summary

Daily Weather History Graph

Daily Weather History Graph

Search for Another Location

Airport or City:

Trip Planner

Search our weather history database for the weather conditions in past years. The results will help you decide how hot, cold, wet, or windy it might be!

Date:

Astronomy

Mar. 18, 2013 Rise Set
Actual Time 7:39 AM CDT 7:44 PM CDT
Civil Twilight 7:14 AM CDT 8:09 PM CDT
Nautical Twilight 6:44 AM CDT 8:39 PM CDT
Astronomical Twilight 6:14 AM CDT 9:09 PM CDT
Moon 11:51 AM CDT (3/18) 1:33 AM CDT (3/18)
Length of Visible Light 12h 55m
Length of Day
12h 04m
Waxing Crescent, 41% of the Moon is Illuminated
Mar 18
Waxing Crescent
Mar 19
First Quarter
Mar 27
Full
Apr 2
Last Quarter
Apr 10
New

Hourly Weather History & Observations

Time (CDT) Temp. Windchill Dew Point Humidity Pressure Visibility Wind Dir Wind Speed Gust Speed Precip Events Conditions
12:15 AM 38.7 °F 35.2 °F 38.7 °F 100% 29.68 in 7.0 mi East 4.6 mph - N/A   Clear
12:35 AM 38.1 °F 34.6 °F 38.1 °F 100% 29.67 in 5.0 mi East 4.6 mph - N/A   Clear
12:55 AM 37.4 °F 32.8 °F 37.4 °F 100% 29.66 in 5.0 mi ESE 5.8 mph - N/A   Clear
1:15 AM 37.8 °F 33.3 °F 37.8 °F 100% 29.66 in 5.0 mi ESE 5.8 mph - N/A   Clear
1:35 AM 37.2 °F - 37.2 °F 100% 29.66 in 5.0 mi Calm Calm - N/A   Clear
1:55 AM 36.3 °F 30.1 °F 36.3 °F 100% 29.69 in 4.0 mi NNE 8.1 mph - N/A   Clear
2:15 AM 38.5 °F 29.6 °F 38.5 °F 100% 29.74 in 4.0 mi North 16.1 mph - N/A   Scattered Clouds
2:35 AM 38.5 °F 29.2 °F 38.5 °F 100% 29.75 in 3.0 mi North 17.3 mph 23.0 mph N/A   Overcast
2:55 AM 38.8 °F 31.2 °F 38.8 °F 100% 29.75 in 4.0 mi NNE 12.7 mph - N/A   Overcast
3:15 AM 39.2 °F 32.0 °F 39.2 °F 100% 29.73 in 4.0 mi ENE 11.5 mph - N/A   Overcast
3:35 AM 39.2 °F 32.0 °F 39.2 °F 100% 29.74 in 5.0 mi ENE 11.5 mph 16.1 mph N/A   Overcast
3:55 AM 38.8 °F 30.0 °F 38.8 °F 100% 29.77 in 5.0 mi NNE 16.1 mph - N/A   Overcast
4:15 AM 38.7 °F 29.5 °F 38.7 °F 100% 29.77 in 4.0 mi NNE 17.3 mph - N/A   Overcast
4:35 AM 39.0 °F 29.9 °F 39.0 °F 100% 29.80 in 4.0 mi North 17.3 mph 21.9 mph N/A   Overcast
5:15 AM 39.4 °F 32.3 °F 39.4 °F 100% 29.80 in 3.0 mi NNE 11.5 mph - N/A   Overcast
5:35 AM 39.2 °F - 39.2 °F 100% 29.80 in 4.0 mi Calm Calm - N/A   Overcast
5:55 AM 39.2 °F 34.2 °F 39.2 °F 100% 29.82 in 4.0 mi North 6.9 mph - N/A   Overcast
6:15 AM 39.4 °F 32.3 °F 39.4 °F 100% 29.85 in 3.0 mi NNW 11.5 mph - N/A   Overcast
6:35 AM 39.4 °F 31.8 °F 39.4 °F 100% 29.87 in 5.0 mi NNW 12.7 mph - N/A   Overcast
6:55 AM 39.7 °F 32.7 °F 39.7 °F 100% 29.88 in 7.0 mi NNW 11.5 mph - N/A   Overcast
7:15 AM 40.1 °F 31.3 °F 40.1 °F 100% 29.89 in 7.0 mi NNW 17.3 mph 20.7 mph N/A   Overcast
7:35 AM 40.1 °F 34.1 °F 40.1 °F 100% 29.90 in 7.0 mi NNW 9.2 mph - N/A   Overcast
7:55 AM 40.1 °F 33.6 °F 40.1 °F 100% 29.90 in 7.0 mi NNW 10.4 mph - N/A   Overcast
8:15 AM 39.0 °F 35.7 °F 39.0 °F 100% 29.92 in 5.0 mi NW 4.6 mph - N/A   Scattered Clouds
8:35 AM 38.7 °F - 38.7 °F 100% 29.92 in 5.0 mi Calm Calm - N/A   Clear
8:55 AM 39.7 °F 35.6 °F 39.7 °F 100% 29.94 in 5.0 mi North 5.8 mph - N/A   Clear
9:15 AM 41.9 °F 35.4 °F 41.4 °F 98% 29.94 in 10.0 mi NNW 11.5 mph - N/A   Clear
9:35 AM 43.5 °F 36.4 °F 40.5 °F 89% 29.95 in 10.0 mi NNW 15.0 mph 20.7 mph N/A   Clear
9:55 AM 44.8 °F 36.2 °F 37.6 °F 76% 29.95 in 10.0 mi North 23.0 mph 28.8 mph N/A   Clear
10:15 AM 45.9 °F 37.4 °F 37.4 °F 72% 29.96 in 10.0 mi North 24.2 mph 29.9 mph N/A   Clear
10:35 AM 45.9 °F 37.4 °F 36.7 °F 70% 29.97 in 10.0 mi North 24.2 mph 31.1 mph N/A   Clear
10:55 AM 46.8 °F - 35.2 °F 64% 29.97 in 10.0 mi North 27.6 mph 34.5 mph N/A   Clear
11:15 AM 48.6 °F - 34.3 °F 58% 29.99 in 10.0 mi NNE 23.0 mph 33.4 mph N/A   Clear
11:35 AM 48.9 °F - 33.8 °F 56% 29.99 in 10.0 mi North 23.0 mph - N/A   Clear
11:55 AM 50.2 °F - 34.5 °F 55% 29.99 in 10.0 mi North 21.9 mph 27.6 mph N/A   Clear
12:15 PM 50.4 °F - 34.2 °F 54% 29.99 in 10.0 mi North 17.3 mph - N/A   Clear
12:35 PM 51.1 °F - 34.0 °F 52% 30.00 in 10.0 mi North 21.9 mph 26.5 mph N/A   Clear
12:55 PM 52.2 °F - 34.0 °F 50% 30.00 in 10.0 mi North 18.4 mph 25.3 mph N/A   Clear
1:15 PM 53.2 °F - 32.9 °F 46% 30.01 in 10.0 mi North 12.7 mph 24.2 mph N/A   Clear
1:35 PM 53.8 °F - 32.7 °F 45% 30.02 in 10.0 mi NNE 10.4 mph - N/A   Clear
1:55 PM 54.7 °F - 31.8 °F 42% 30.02 in 10.0 mi NNE 13.8 mph 17.3 mph N/A   Clear
2:15 PM 54.3 °F - 32.0 °F 43% 30.02 in 10.0 mi North 9.2 mph - N/A   Clear
2:35 PM 55.8 °F - 30.4 °F 38% 30.01 in 10.0 mi NNE 11.5 mph 18.4 mph N/A   Clear
2:55 PM 56.1 °F - 31.1 °F 39% 29.99 in 10.0 mi North 10.4 mph 17.3 mph N/A   Clear
3:15 PM 57.2 °F - 28.8 °F 34% 29.99 in 10.0 mi North 13.8 mph 20.7 mph N/A   Clear
3:35 PM 57.2 °F - 30.4 °F 36% 29.98 in 10.0 mi North 6.9 mph 17.3 mph N/A   Clear
3:55 PM 57.6 °F - 28.8 °F 33% 29.98 in 10.0 mi NNE 10.4 mph - N/A   Clear
4:15 PM 57.6 °F - 30.0 °F 35% 29.97 in 10.0 mi North 16.1 mph 19.6 mph N/A   Clear
4:35 PM 58.1 °F - 29.7 °F 34% 29.97 in 10.0 mi North 13.8 mph 23.0 mph N/A   Clear
4:55 PM 58.5 °F - 30.0 °F 34% 29.97 in 10.0 mi North 17.3 mph - N/A   Clear
5:15 PM 57.9 °F - 30.6 °F 35% 29.97 in 10.0 mi NNE 16.1 mph 20.7 mph N/A   Clear
5:35 PM 58.1 °F - 30.6 °F 35% 29.98 in 10.0 mi North 9.2 mph 17.3 mph N/A   Clear
5:55 PM 57.9 °F - 30.4 °F 35% 29.99 in 10.0 mi NNE 12.7 mph - N/A   Clear
6:15 PM 58.1 °F - 31.1 °F 36% 29.99 in 10.0 mi NNE 8.1 mph - N/A   Clear
6:35 PM 57.4 °F - 31.1 °F 37% 29.99 in 10.0 mi NNE 9.2 mph - N/A   Clear
6:55 PM 56.8 °F - 31.6 °F 38% 30.00 in 10.0 mi North 10.4 mph - N/A   Clear
7:15 PM 56.3 °F - 32.4 °F 40% 30.00 in 10.0 mi NE 4.6 mph - N/A   Clear
7:35 PM 54.0 °F - 31.8 °F 43% 30.00 in 10.0 mi NNE 8.1 mph - N/A   Clear
7:55 PM 50.7 °F - 32.9 °F 51% 30.00 in 10.0 mi NE 9.2 mph - N/A   Clear
8:15 PM 46.6 °F - 33.3 °F 60% 30.00 in 10.0 mi ENE 5.8 mph - N/A   Clear
8:35 PM 44.1 °F 40.8 °F 34.0 °F 68% 30.01 in 10.0 mi ENE 5.8 mph - N/A   Clear
8:55 PM 43.2 °F 39.7 °F 32.7 °F 67% 30.01 in 10.0 mi East 5.8 mph - N/A   Clear
9:15 PM 42.6 °F 39.9 °F 32.4 °F 67% 30.00 in 10.0 mi ESE 4.6 mph - N/A   Clear
9:35 PM 41.0 °F 38.0 °F 32.7 °F 72% 30.01 in 10.0 mi East 4.6 mph - N/A   Clear
9:55 PM 41.0 °F 38.0 °F 32.0 °F 70% 30.02 in 10.0 mi East 4.6 mph - N/A   Clear
10:15 PM 41.2 °F 38.2 °F 32.0 °F 70% 30.02 in 10.0 mi East 4.6 mph - N/A   Clear
10:35 PM 40.3 °F 37.1 °F 32.0 °F 72% 30.03 in 10.0 mi East 4.6 mph - N/A   Clear
11:15 PM 42.3 °F - 30.7 °F 64% 30.04 in 10.0 mi Calm Calm - N/A   Clear
11:35 PM 42.4 °F 39.6 °F 30.2 °F 62% 30.02 in 10.0 mi East 4.6 mph - N/A   Clear
11:55 PM 39.4 °F 37.2 °F 30.7 °F 71% 30.02 in 10.0 mi ESE 3.5 mph - N/A   Clear